Manhattan, KS

4:49 AM CST on December 16, 2019 (GMT -0600)
Manhattan Regional

Weather History for KMHK - October, 2019

Change the Weather History Date:

Saturday, October 5, 2019

  Actual Average Record
Temperature  
Mean Temperature 61 °F 60 °F  
Max Temperature 75 °F 73 °F 91 °F (2007)
Min Temperature 46 °F 46 °F 34 °F (1999)
Degree Days  
Heating Degree Days 4 7  
Month to date heating degree days 24 33  
Since 1 July heating degree days 25 103  
Cooling Degree Days 0 2  
Month to date cooling degree days 13 10  
Year to date cooling degree days 1608 1347  
Growing Degree Days 12 (Base 50)    
Moisture  
Dew Point 58 °F    
Average Humidity 66    
Maximum Humidity 93    
Minimum Humidity 38    
Precipitation  
Precipitation 0.50 in 0.09 in 0.65 in (2005)
Month to date precipitation 1.93 0.43  
Year to date precipitation 39.91 28.14  
Sea Level Pressure  
Sea Level Pressure 29.93 in    
Wind  
Wind Speed 7 mph (SW)    
Max Wind Speed 20 mph    
Max Gust Speed 32 mph    
Visibility 9 miles    
Events Rain , Thunderstorm    
T = Trace of Precipitation, MM = Missing Value Source: NWS Daily Summary

Daily Weather History Graph

Daily Weather History Graph

Search for Another Location

Airport or City:

Astronomy

Oct. 05, 2019 Rise Set
Actual Time 7:26 AM CDT 7:03 PM CDT
Civil Twilight 6:59 AM CDT 7:29 PM CDT
Nautical Twilight 6:28 AM CDT 8:00 PM CDT
Astronomical Twilight 5:57 AM CDT 8:31 PM CDT
Moon 2:50 PM CDT (10/5) No Moon Set
Length of Visible Light 12h 30m
Length of Day
11h 36m
Waxing Crescent, 50% of the Moon is Illuminated
Oct 5
Waxing Crescent
Oct 13
Full
Oct 21
Last Quarter
Oct 27
New
Nov 4
First Quarter

Hourly Weather History & Observations

Time (CDT) Temp. Dew Point Humidity Pressure Visibility Wind Dir Wind Speed Gust Speed Precip Events Conditions
12:32 AM 60.1 °F 53.1 °F 78% 30.01 in 10.0 mi ESE 5.8 mph - N/A   Scattered Clouds
12:52 AM 60.1 °F 53.1 °F 78% 30.01 in 10.0 mi Variable 3.5 mph - N/A   Clear
1:52 AM 61.0 °F 53.1 °F 75% 29.99 in 10.0 mi ESE 4.6 mph - N/A   Clear
2:52 AM 61.0 °F 54.0 °F 78% 29.98 in 10.0 mi SE 5.8 mph - N/A   Partly Cloudy
3:52 AM 62.1 °F 57.0 °F 84% 29.95 in 10.0 mi South 6.9 mph - N/A   Mostly Cloudy
4:24 AM 63.0 °F 59.0 °F 87% 29.94 in 10.0 mi Variable 5.8 mph - 0.00 in Rain Light Rain
4:47 AM 64.4 °F 60.8 °F 88% 29.94 in 10.0 mi South 8.1 mph 16.1 mph N/A Rain Light Rain
4:52 AM 64.0 °F 60.1 °F 87% 29.93 in 10.0 mi South 5.8 mph - 0.01 in Rain Light Rain
5:52 AM 66.0 °F 63.0 °F 90% 29.87 in 10.0 mi SSW 6.9 mph - 0.00 in   Overcast
6:07 AM 66.9 °F 63.0 °F 87% 29.89 in 9.0 mi SSW 15.0 mph 20.7 mph 0.01 in Rain , Thunderstorm Light Rain
6:41 AM 68.0 °F 64.0 °F 87% 29.88 in 10.0 mi South 16.1 mph 32.2 mph 0.31 in Rain , Thunderstorm Light Thunderstorms and Rain
6:52 AM 68.0 °F 64.9 °F 90% 29.88 in 9.0 mi SSW 16.1 mph 26.5 mph 0.33 in Rain , Thunderstorm Light Rain
7:16 AM 68.0 °F 64.9 °F 90% 29.87 in 10.0 mi SSW 13.8 mph 25.3 mph 0.00 in   Overcast
7:34 AM 68.0 °F 64.9 °F 90% 29.85 in 10.0 mi South 12.7 mph - 0.01 in Rain , Thunderstorm Light Thunderstorms and Rain
7:52 AM 69.1 °F 64.9 °F 87% 29.86 in 10.0 mi SW 10.4 mph 18.4 mph 0.01 in Rain , Thunderstorm Light Thunderstorms and Rain
8:15 AM 69.1 °F 66.0 °F 90% 29.87 in 10.0 mi WSW 12.7 mph 20.7 mph 0.04 in Thunderstorm Overcast
8:31 AM 69.1 °F 66.0 °F 90% 29.87 in 10.0 mi SSW 12.7 mph - 0.04 in Thunderstorm Overcast
8:35 AM 69.1 °F 66.0 °F 90% 29.87 in 10.0 mi SSW 16.1 mph 25.3 mph 0.04 in   Overcast
8:52 AM 69.1 °F 66.0 °F 90% 29.87 in 10.0 mi SSW 13.8 mph 25.3 mph 0.04 in   Overcast
9:00 AM 69.1 °F 66.0 °F 90% 29.88 in 10.0 mi SSW 13.8 mph - N/A   Overcast
9:29 AM 69.1 °F 66.0 °F 90% 29.90 in 2.5 mi West 8.1 mph - 0.07 in Rain Rain
9:36 AM 69.1 °F 66.9 °F 93% 29.89 in 1.5 mi SW 12.7 mph - 0.11 in Rain Rain
9:39 AM 69.1 °F 66.9 °F 93% 29.89 in 2.5 mi SW 11.5 mph - 0.11 in Rain Light Rain
9:42 AM 69.1 °F 66.9 °F 93% 29.89 in 7.0 mi SW 9.2 mph - 0.11 in Rain Light Rain
9:52 AM 69.1 °F 66.9 °F 93% 29.88 in 10.0 mi SW 12.7 mph - 0.11 in   Overcast
10:52 AM 72.0 °F 69.1 °F 91% 29.90 in 10.0 mi SW 9.2 mph - N/A   Overcast
11:52 AM 72.0 °F 61.0 °F 68% 29.92 in 10.0 mi NNW 12.7 mph 24.2 mph N/A   Overcast
12:52 PM 73.9 °F 46.9 °F 38% 29.94 in 10.0 mi NNW 10.4 mph 25.3 mph N/A   Clear
1:52 PM 73.0 °F 46.9 °F 39% 29.94 in 10.0 mi NNW 6.9 mph 21.9 mph N/A   Clear
2:52 PM 73.9 °F 46.9 °F 38% 29.94 in 10.0 mi WNW 8.1 mph 23.0 mph N/A   Clear
3:52 PM 73.0 °F 46.0 °F 38% 29.94 in 10.0 mi North 9.2 mph 19.6 mph N/A   Clear
4:52 PM 72.0 °F 46.9 °F 41% 29.95 in 10.0 mi North 9.2 mph 19.6 mph N/A   Clear
5:52 PM 70.0 °F 46.0 °F 42% 29.97 in 10.0 mi North 4.6 mph - N/A   Clear
6:52 PM 64.9 °F 48.0 °F 54% 29.99 in 10.0 mi Calm Calm - N/A   Clear
7:52 PM 59.0 °F 48.0 °F 67% 30.01 in 10.0 mi Calm Calm - N/A   Clear
8:52 PM 53.1 °F 48.0 °F 83% 30.03 in 10.0 mi Calm Calm - N/A   Clear
9:52 PM 52.0 °F 48.0 °F 86% 30.05 in 10.0 mi Calm Calm - N/A   Clear
10:52 PM 50.0 °F 46.9 °F 89% 30.06 in 10.0 mi Calm Calm - N/A   Clear
11:52 PM 48.0 °F 46.0 °F 93% 30.06 in 10.0 mi Calm Calm - N/A   Clear